Flag for Mexico Weather past 2 weeks in Mexico City, Federal District, Mexico

Now
66 °F

Sunny.


Feels Like: 66 °F
Forecast: 45 / 76 °F
Wind: 7 mph from Northeast

Location: Mexico City / Licenci

Current Time: Mar 31, 2015 at 11:14:50 AM

Latest Report: Mar 31, 2015 at 10:45 AM


Visibility: 7 mi

Pressure: 30.37 "Hg

Humidity: 35%

Dew point: 37 °F

Location of Mexico CityLocation

Historic Weather in Mexico City — Graph

°F

Mexico City temperature yesterday

Maximum temperature yesterday: 73 °F (at 4:48 PM)
Minimum temperature yesterday: 48 °F (at 4:45 AM)
Average temperature yesterday: 58 °F

Past Weeks' High & Low Weather Summary

 TemperatureHumidityPressure
High75 °F (Mar 16, 1:42 PM)94% (Mar 28, 5:45 AM)30.49 "Hg (Mar 28, 5:45 AM)
Low48 °F (Mar 30, 4:45 AM)17% (Mar 30, 6:48 PM)29.66 "Hg (Mar 19, 5:56 PM)
Average61 °F59%30.21 "Hg
* Reported Mar 16 9:20 AM — Mar 31 9:21 AM, Mexico City, Weather by CustomWeather, © 2015

Note: Actual official high and low records may vary slightly from our data, if they occured in-between our weather recording intervals... More about our weather records

Advertising

Mexico City weather history for previous 24 hours

 ConditionsComfort  
Time TempWeatherWind HumidityBarometerVisibility
9:21 AM
Tue, Mar 31
61 °FSunny.3 mph45%30.39 "Hg10 mi
8:42 AM55 °FSunny.5 mph51%29.96 "Hg10 mi
8:20 AM54 °FSunny.3 mph51%30.39 "Hg10 mi
7:45 AM50 °FSunny.7 mph62%30.38 "Hg10 mi
7:21 AM50 °FSunny.7 mph62%30.36 "Hg12 mi
6:48 AM48 °FPassing clouds.5 mph66%30.36 "Hg12 mi
6:22 AM48 °FClear.3 mph66%30.35 "Hg12 mi
5:50 AM48 °FClear.No wind62%29.90 "Hg12 mi
4:47 AM50 °FClear.6 mph62%30.34 "Hg12 mi
3:45 AM52 °FClear.7 mph62%30.34 "Hg12 mi
2:52 AM54 °FClear.3 mph51%29.87 "Hg15 mi
1:55 AM57 °FClear.5 mph51%30.37 "Hg8 mi
12:54 AM59 °FClear.6 mph48%30.38 "Hg15 mi
11:46 PM
Mon, Mar 30
61 °FClear.7 mph39%29.90 "Hg15 mi
10:47 PM61 °FClear.8 mph42%30.39 "Hg15 mi
9:45 PM63 °FClear.6 mph42%30.39 "Hg15 mi
8:46 PM63 °FClear.14 mph42%29.91 "Hg15 mi
7:45 PM66 °FClear.17 mph35%30.33 "Hg15 mi
6:48 PM70 °FSunny.10 mph17%30.31 "Hg15 mi
4:48 PM73 °FSunny.8 mph20%30.30 "Hg15 mi
3:49 PM72 °FSunny.8 mph20%30.32 "Hg15 mi
11:47 AM68 °FSunny.2 mph24%29.97 "Hg10 mi
Weather by CustomWeather, © 2015

See weather overviewHow to use our weather pages